Flag for U.S.A. Weather past 2 weeks in Jacksonville, Florida, U.S.A.

Now
82 °F

Clear.


Feels Like: 84 °F
Forecast: 67 / 91 °F
Wind: No wind

Location: Jacksonville Naval Air Station

Current Time: Aug 27, 2014 at 11:30:17 PM

Latest Report: Aug 27, 2014 at 10:53 PM


Visibility: 10 mi

Pressure: 30.01 "Hg

Humidity: 56%

Dew point: 65 °F

Location of JacksonvilleLocation

Historic Weather in Jacksonville — Graph

°F

Jacksonville temperature yesterday

Maximum temperature yesterday: 89 °F (at 2:53 PM)
Minimum temperature yesterday: 78 °F (at 5:53 AM)
Average temperature yesterday: 83 °F

Past Weeks' High & Low Weather Summary

 TemperatureHumidityPressure
High101 °F (Aug 22, 2:53 PM)88% (Aug 14, 4:53 AM)30.12 "Hg (Aug 14, 4:53 AM)
Low76 °F (Aug 27, 7:53 AM)33% (Aug 22, 3:53 PM)29.81 "Hg (Aug 24, 4:53 AM)
Average85 °F68%29.98 "Hg
* Reported Aug 12 9:53 PM — Aug 27 9:53 PM, Jacksonville, Weather by CustomWeather, © 2014

Note: Actual official high and low records may vary slightly from our data, if they occured in-between our weather recording intervals... More about our weather records

Advertising

Jacksonville weather history for previous 24 hours

 ConditionsComfort  
Time TempWeatherWind HumidityBarometerVisibility
9:53 PM
Aug 27
82 °FClear.5 mph56%30.01 "Hg10 mi
8:53 PM83 °FSunny.7 mph51%29.99 "Hg10 mi
7:53 PM84 °FPassing clouds.9 mph49%29.97 "Hg10 mi
6:53 PM86 °FSunny.9 mph46%29.97 "Hg10 mi
5:53 PM88 °FPassing clouds.13 mph43%29.96 "Hg10 mi
4:53 PM89 °FPassing clouds.12 mph43%29.96 "Hg10 mi
3:53 PM89 °FPassing clouds.12 mph45%29.97 "Hg10 mi
2:53 PM90 °FPassing clouds.14 mph47%29.98 "Hg10 mi
1:53 PM89 °FScattered clouds.10 mph50%29.99 "Hg10 mi
12:53 PM90 °FScattered clouds.10 mph45%30.01 "Hg10 mi
11:53 AM89 °FScattered clouds.10 mph48%30.01 "Hg10 mi
10:53 AM86 °FScattered clouds.9 mph57%30.01 "Hg10 mi
9:53 AM84 °FPassing clouds.12 mph59%30.01 "Hg10 mi
8:53 AM80 °FPassing clouds.10 mph67%30.00 "Hg10 mi
7:53 AM76 °FPassing clouds.7 mph80%30.00 "Hg10 mi
6:53 AM78 °FPassing clouds.No wind74%29.98 "Hg10 mi
5:53 AM81 °FPassing clouds.6 mph67%29.96 "Hg10 mi
4:53 AM81 °FPassing clouds.8 mph65%29.96 "Hg10 mi
3:53 AM81 °FClear.9 mph65%29.95 "Hg10 mi
2:53 AM81 °FClear.8 mph65%29.96 "Hg10 mi
1:53 AM82 °FClear.8 mph65%29.97 "Hg10 mi
12:53 AM82 °FClear.10 mph65%29.98 "Hg10 mi
11:53 PM
Aug 26
82 °FClear.10 mph65%29.98 "Hg10 mi
Weather by CustomWeather, © 2014

See weather overviewHow to use our weather pages